Regional Weather Roundup
Issued by NWS

Home | Current Version | Previous Version | Graphics & Text | Print | Product List | Glossary On
Versions: 1 2 3 4 5 6 7 8 9 10 11 12 13 14 15 16 17 18 19 20 21 22 23 24 25 26 27 28 29 30 31 32 33 34 35 36 37 38 39 40 41 42 43 44 45 46 47 48 49 50
000
ASUS43 KDMX 221306
RWRIA

WEATHER ROUNDUP FOR IOWA
NATIONAL WEATHER SERVICE DES MOINES IA
700 AM CST THU FEB 22 2018

NOTE: "FAIR" INDICATES FEW OR NO CLOUDS BELOW 12,000 FEET WITH NO
SIGNIFICANT WEATHER AND/OR OBSTRUCTIONS TO VISIBILITY.

* - THESE STATIONS ARE NOT NWS STATIONS...THUS NOT UNDER NWS
QUALITY CONTROL.  THEY ALSO DO NOT REPORT WEATHER SUCH
AS PRECIPITATION OR FOG.

IAZ001>003-012>014-020>022-031>034-043>046-221400-
   NORTHWEST IOWA

CITY           SKY/WX    TMP DP  RH WIND       PRES   REMARKS
CARROLL *      MIX PCPN  23  19  86 E12       30.44F WCI  12
CHEROKEE *     CLOUDY    20  19  94 E5        30.46S WCI  13
DENISON *      CLOUDY    21  18  86 E9        30.45F WCI  11
LE MARS *      CLOUDY    19  18  93 E5        30.46F WCI  13
ORANGE CITY *  CLOUDY    19  19 100 E6        30.44F WCI  11
SHELDON *      CLOUDY    18  18 100 E9        30.43F WCI   6
SIOUX CITY     CLOUDY    20  18  92 NE6       30.45F WCI  12
SPENCER        MIX PCPN  19  16  88 NE7       30.47S WCI  10
STORM LAKE *   CLOUDY    19  19 100 E10       30.44S WCI   8
$$

IAZ055>058-069>071-079>083-090>094-221400-
   SOUTHWEST IOWA

CITY           SKY/WX    TMP DP  RH WIND       PRES   REMARKS
ATLANTIC *     CLOUDY    23  21  93 E8        30.44F WCI  14
AUDUBON *      FLURRIES  23  19  86 E10       30.44S WCI  12
CLARINDA *     CLOUDY    25  25 100 E6        30.47R WCI  18
COUNCIL BLFS * LGT SNOW  23  23 100 NE9       30.42R WCI  13
CRESTON *      LGT SNOW  23  21  93 E13       30.43S WCI  11
HARLAN  *      LGT SNOW  23  23 100 E9        30.46F WCI  13
LAMONI         FRZ RAIN  26  22  84 E7        30.43R FOG     WCI  18
RED OAK *      LGT SNOW  25  23  93 E9        30.44R WCI  15
SHENANDOAH *   FLURRIES  25  23  93 NE10      30.43F WCI  15
$$

IAZ047>049-059>061-072>074-084-221400-
   CENTRAL IOWA

CITY           SKY/WX    TMP DP  RH WIND       PRES   REMARKS
AMES           FLURRIES  24  17  74 E9        30.48F WCI  14
ANKENY *       CLOUDY    25  19  80 NE9       30.50F WCI  15
BOONE *        CLOUDY    23  19  86 E12G17    30.46F WCI  12
CHARITON *     CLOUDY    25  21  86 NE13      30.44F WCI  13
DES MOINES     FLURRIES  25  17  72 NE12      30.47F WCI  14
GRINNELL*      CLOUDY    25  19  77 NE8       30.52R WCI  16
KNOXVILLE *    CLOUDY    27  18  69 NE8G14    30.45F WCI  18
MARSHALLTOWN   CLOUDY    24  17  74 NE10      30.50S WCI  14
NEWTON *       CLOUDY    25  18  74 NE15      30.49S WCI  12
PELLA *        FAIR      26  19  75 NE7       30.49F WCI  19
PERRY *        FLURRIES  24  20  85 E9        30.48F WCI  14
$$

IAZ004>006-015-016-023>025-035-036-221400-
   NORTH CENTRAL IOWA

CITY           SKY/WX    TMP DP  RH WIND       PRES   REMARKS
ALGONA *       MOCLDY    21 N/A N/A E6        30.48F WCI  14
CLARION *      CLOUDY    23  23 100 E16       30.47F WCI  10
ESTHERVILLE    FLURRIES  16  14  92 NE8       30.48F WCI   5
FORT DODGE *   CLOUDY    21  19  92 E5        30.48F WCI  15
MASON CITY     CLOUDY    21  18  88 E9        30.52F WCI  11
FOREST CITY *  CLOUDY    23  21  93 SE7       30.50F WCI  15
WEBSTER CITY * CLOUDY    23  18  80 E14       30.47F WCI  11
IOWA FALLS *   CLOUDY    25  19  77 E9        30.51F WCI  15
$$

IAZ007>011-017>019-026>030-037>042-050>054-066-221400-
   NORTHEAST IOWA

CITY           SKY/WX    TMP DP  RH WIND       PRES   REMARKS
CEDAR RAPIDS   CLOUDY    27  14  58 E13       30.49S WCI  16
CHARLES CITY * CLOUDY    23  23 100 NE9       30.53S WCI  13
CLINTON *      CLOUDY    27  21  78 NE14      30.55S WCI  16
DECORAH *      CLOUDY    21  18  86 NE6       30.54R WCI  14
DUBUQUE        CLOUDY    24  14  65 NE15      30.53F WCI  11
MONTICELLO *   CLOUDY    25  16  68 NE10      30.52F WCI  15
OELWEIN *      CLOUDY    23  19  86 E12G17    30.54R WCI  12
WATERLOO       CLOUDY    24  16  71 SE9       30.54R WCI  14
$$

IAZ064-065-067-068-078-221400-
   EAST CENTRAL IOWA

CITY           SKY/WX    TMP DP  RH WIND       PRES   REMARKS
DAVENPORT      CLOUDY    28  19  69 NE13      30.54S WCI  17
IOWA CITY      CLOUDY    29  16  58 NE8       30.52S WCI  21
MT. PLEASANT * LGT SNOW  28  23  80 NE14      30.46F WCI  17
MUSCATINE *    CLOUDY    30  21  69 NE9       30.51F WCI  22
QUAD CITIES    CLOUDY    29  21  72 NE10      30.52S WCI  20
$$

IAZ062-063-075>077-085>089-095>099-221400-
   SOUTHEAST IOWA

CITY           SKY/WX    TMP DP  RH WIND       PRES   REMARKS
BURLINGTON     CLOUDY    29  23  78 NE14      30.46S WCI  18
FAIRFIELD *    CLOUDY    28  19  69 E15       30.45F WCI  17
FORT MADISON * CLOUDY    28  25  86 NE9       30.46S WCI  20
KEOKUK *       CLOUDY    28  27  93 NE10      30.44S WCI  19
OSKALOOSA *    CLOUDY    27  20  76 NE9       30.48R WCI  17
OTTUMWA        CLOUDY    28  19  69 NE10      30.47R WCI  19
WASHINGTON *   MOCLDY    28  23  80 E13G22    30.49F WCI  18
$$

ABBREVIATIONS USED IN REMARKS
   TC - TEMPERATURES IN CELSIUS
  WCI - WIND CHILL INDEX
   HX - HEAT INDEX
  VSB - VISIBILITY
$$





USA.gov is the U.S. government's official web portal to all federal, state and local government web resources and services.